Weather observations for the past three days for
Detroit/Grosse Ile, Grosse Ile Airport
Imperial (Metric)
Date Time (edt) Wind (mph) Vis. (mi.) Weather Sky Cond. Temperature (ºF) Relative Humidity Wind Chill (°F) Heat Index (°F) Pressure Precipitation (in)
Air Dwpt 6 hour altimeter (in) sea level (mb) 1 hr 3 hr 6 hr
Max. Min.
20 20:55 Calm 10.00 Overcast OVC110 73 48.2 41% 30.07 0.0
20 20:35 Calm 10.00 Overcast OVC100 74.8 46 36% 30.07 0.0
20 20:15 Calm 10.00 Overcast OVC100 75 51.6 44% 78 30.07 0.0
20 19:55 Calm 10.00 Overcast OVC110 75.6 54 79 75.6 47% 78 30.07 0.0
20 19:35 SW 3 10.00 Mostly Cloudy BKN100 76.8 50.7 40% 78 30.07 0.0
20 19:15 S 3 10.00 Mostly Cloudy BKN100 77 50.5 40% 78 30.07 0.0
20 18:55 S 6 10.00 Mostly Cloudy BKN100 77 52 42% 78 30.07 0.0
20 18:35 S 5 10.00 Mostly Cloudy SCT050 BKN100 77.4 52.3 42% 78 30.07 0.0
20 18:15 S 5 10.00 Overcast SCT050 OVC100 76.8 51.3 41% 78 30.07 0.0
20 17:55 S 5 10.00 Overcast SCT050 SCT075 OVC100 75.9 51.3 42% 78 30.07 0.0
20 17:35 S 6 10.00 Mostly Cloudy BKN050 BKN070 BKN110 78.8 51.1 38% 79 30.07 0.0
20 17:15 S 5 10.00 Mostly Cloudy BKN050 BKN085 BKN110 77.2 50.5 39% 78 30.08 0.0
20 16:55 S 6 10.00 Mostly Cloudy BKN050 76.8 51.1 41% 78 30.09 0.0
20 16:35 S 6 10.00 Partly Cloudy SCT050 76.8 50.9 40% 78 30.09 0.0
20 16:15 S 8 10.00 Fair CLR 76.5 50.2 40% 78 30.09 0.0
20 15:55 S 7 7.00 Partly Cloudy SCT050 SCT090 SCT110 76.8 49.1 38% 78 30.09 0.0
20 15:35 S 8 10.00 Partly Cloudy SCT050 SCT080 SCT090 77 49.1 38% 78 30.1 0.0
20 15:15 S 9 10.00 Mostly Cloudy SCT050 SCT080 BKN100 77.4 49.3 37% 78 30.1 0.0
20 14:55 S 9 5.00 Mostly Cloudy with Haze SCT050 SCT070 BKN090 79 51.6 39% 79 30.11 0.0
20 14:35 S 8 7.00 Mostly Cloudy BKN050 BKN090 BKN120 78.3 49.6 37% 79 30.11 0.0
20 14:15 S 6 7.00 Mostly Cloudy BKN050 BKN100 77 49.6 38% 78 30.11 0.0
20 13:55 S 7 7.00 Overcast BKN050 BKN060 OVC085 77.9 50.9 78.4 68.4 39% 79 30.11 0.0
20 13:35 S 8 10.00 Mostly Cloudy SCT050 SCT065 BKN085 77.9 51.3 39% 79 30.11 0.0
20 13:15 S 6 10.00 Mostly Cloudy BKN050 BKN070 BKN090 76.8 48.7 37% 78 30.11 0.0
20 12:55 S 9 10.00 Overcast BKN050 BKN075 OVC100 77.7 50.2 38% 78 30.11 0.0
20 12:35 S 6 10.00 Overcast SCT050 SCT080 OVC100 76.5 50.5 40% 78 30.11 0.0
20 12:15 Calm 10.00 Overcast SCT050 SCT085 OVC100 77.9 43 29% 78 30.12 0.0
20 11:55 W 3 10.00 Overcast SCT050 OVC100 76.1 42.3 30% 77 30.13 0.0
20 11:35 NW 6 10.00 Overcast BKN050 BKN100 OVC110 76.6 40.8 28% 77 30.13 0.0
20 11:15 N 7 10.00 Overcast SCT050 SCT080 OVC100 78.1 42.6 28% 78 30.13 0.0
20 10:55 Calm 10.00 Overcast OVC100 77 45.7 33% 78 30.13 0.0
20 10:35 Calm 10.00 Mostly Cloudy BKN100 BKN120 75.4 47.1 37% 77 30.13 0.0
20 10:15 NW 3 10.00 Mostly Cloudy BKN110 74.7 48 39% 30.13 0.0
20 09:55 NW 3 10.00 Mostly Cloudy BKN110 73.9 49.3 42% 30.13 0.0
20 09:35 W 5 10.00 Mostly Cloudy BKN100 72.7 50.2 45% 30.13 0.0
20 09:15 Calm 10.00 Overcast BKN100 OVC120 71.6 49.8 46% 30.13 0.0
20 08:55 Calm 10.00 Overcast OVC100 71.1 49.5 47% 30.13 0.0
20 08:35 W 3 10.00 Overcast OVC100 70.2 48.6 46% 30.13 0.0
20 08:15 Calm 10.00 Overcast OVC100 69.3 50.5 51% 30.13 0.0
20 07:55 Calm 10.00 Overcast OVC100 68 50.5 68 60.6 54% 30.13 0.0
20 07:35 Calm 10.00 Overcast OVC100 65.1 55.8 72% 30.12 0.0
20 07:15 Calm 10.00 Overcast OVC110 63.7 54.3 72% 30.11 0.0
20 06:55 NW 3 10.00 Overcast OVC110 63.1 53.6 71% 30.12 0.0
20 06:35 Calm 10.00 Overcast SCT080 BKN100 OVC120 61.9 54.7 77% 30.13 0.0
20 06:15 W 5 10.00 Overcast BKN090 OVC120 61.3 54.1 77% 30.12 0.0
20 05:55 Calm 10.00 Overcast BKN100 OVC120 60.6 54.7 81% 30.11 0.0
20 05:35 W 5 10.00 Overcast BKN090 OVC120 61.5 54.7 78% 30.11 0.0
20 05:15 W 3 10.00 Overcast BKN100 OVC120 61.9 54.3 76% 30.11 0.0
20 04:55 W 5 10.00 Overcast BKN100 OVC120 62.1 54.3 76% 30.11 0.0
20 04:35 W 5 10.00 Overcast BKN100 OVC120 63 53.4 71% 30.11 0.0
20 04:15 W 6 10.00 Overcast BKN100 OVC120 63.5 52.9 69% 30.11 0.0
20 03:55 W 6 10.00 Overcast OVC110 64.2 52.5 66% 30.11 0.0
20 03:35 W 7 10.00 Overcast OVC100 63.9 54.1 71% 30.11 0.0
20 03:15 W 6 10.00 Overcast OVC100 63.7 55.8 76% 30.11 0.0
20 02:55 W 5 10.00 Overcast OVC100 64 54.9 72% 30.11 0.0
20 02:35 Calm 10.00 Overcast BKN100 OVC120 63.9 55.2 74% 30.12 0.0
20 02:15 Calm 10.00 Overcast OVC100 64.8 56.3 74% 30.12 0.0
20 01:55 Calm 10.00 Overcast OVC100 64.8 57.4 73.4 64.2 77% 30.13 0.0
20 01:35 Calm 10.00 Overcast BKN100 OVC120 64.8 57 76% 30.13 0.0
20 01:15 Calm 10.00 Overcast BKN100 OVC120 66 55.9 70% 30.13 0.0
20 00:55 Calm 10.00 Overcast OVC100 65.8 56.1 71% 30.13 0.0
20 00:35 SW 3 10.00 Overcast OVC110 70 53.2 55% 30.12 0.0
20 00:15 S 6 10.00 Overcast OVC110 70.7 52.9 53% 30.12 0.0
19 23:55 S 6 10.00 Overcast BKN100 OVC120 71.6 52.5 51% 30.13 0.0
19 23:35 S 7 10.00 Overcast BKN100 OVC110 71.6 53.2 53% 30.13 0.0
19 23:15 S 6 10.00 Overcast BKN100 OVC120 71.1 52.9 53% 30.12 0.0
19 22:55 S 7 10.00 Overcast BKN100 OVC110 71.4 52.5 51% 30.13 0.0
19 22:35 S 8 10.00 Overcast BKN100 OVC120 71.6 52.2 50% 30.13 0.0
19 22:15 S 7 10.00 Overcast BKN100 OVC120 71.6 51.8 50% 30.13 0.0
19 21:55 S 8 10.00 Overcast BKN100 OVC120 71.6 51.3 49% 30.13 0.0
19 21:35 S 7 10.00 Overcast BKN100 OVC120 71.6 50.5 48% 30.13 0.0
19 21:15 S 8 10.00 Overcast OVC100 71.6 51.4 49% 30.13 0.0
19 20:55 S 7 10.00 Overcast OVC100 72 50.2 46% 30.12 0.0
19 20:35 S 8 10.00 Overcast OVC110 72.3 50.4 46% 30.12 0.0
19 20:15 S 7 10.00 Overcast OVC110 73 48.9 43% 30.13 0.0
19 19:55 S 7 10.00 Overcast OVC110 73.4 49.8 76.3 73.4 44% 30.12 0.0
19 19:35 S 7 10.00 Overcast OVC100 74.3 49.5 42% 30.11 0.0
19 19:15 S 8 10.00 Overcast OVC100 74.5 48.7 40% 30.11 0.0
19 18:55 S 8 10.00 Overcast OVC100 75.2 49.6 41% 78 30.11 0.0
19 18:35 S 7 10.00 Overcast OVC100 75.4 49.5 40% 78 30.12 0.0
19 18:15 S 7 10.00 Mostly Cloudy BKN100 75.6 48.6 39% 78 30.12 0.0
19 17:55 S 8 10.00 Mostly Cloudy BKN100 75.4 49.1 40% 78 30.13 0.0
19 17:35 S 8 10.00 Mostly Cloudy BKN100 75.4 48 38% 78 30.13 0.0
19 17:15 S 7 10.00 Mostly Cloudy BKN110 76.1 48 37% 78 30.14 0.0
19 16:55 S 9 10.00 Mostly Cloudy BKN100 75.7 47.5 37% 78 30.15 0.0
19 16:35 S 7 10.00 Mostly Cloudy BKN100 75.9 46.9 36% 78 30.15 0.0
19 16:15 S 9 10.00 Mostly Cloudy BKN100 75.6 46 35% 77 30.15 0.0
19 15:55 S 8 10.00 Mostly Cloudy BKN100 BKN120 76.1 47.1 36% 78 30.16 0.0
19 15:35 S 9 10.00 Partly Cloudy SCT100 SCT120 75.7 47.5 37% 78 30.16 0.0
19 15:15 S 12 10.00 Partly Cloudy SCT100 75.2 48.6 39% 78 30.17 0.0
19 14:55 S 10 10.00 Partly Cloudy SCT110 75.6 48.4 38% 78 30.17 0.0
19 14:35 S 9 10.00 Partly Cloudy SCT110 75.4 48.7 39% 78 30.18 0.0
19 14:15 S 9 10.00 Partly Cloudy SCT110 75.4 47.7 38% 78 30.18 0.0
19 13:55 S 10 10.00 Partly Cloudy SCT050 SCT100 SCT120 74.7 48.2 75.4 63.9 39% 30.19 0.0
19 13:35 S 7 10.00 Partly Cloudy SCT050 SCT110 74.3 47.8 39% 30.18 0.0
19 13:15 S 9 10.00 Partly Cloudy SCT100 74.5 48.4 40% 30.19 0.0
19 12:55 S 9 10.00 Mostly Cloudy SCT050 BKN110 74.5 48.2 40% 30.2 0.0
19 12:35 S 5 10.00 Mostly Cloudy BKN050 BKN095 BKN120 74.7 46.2 36% 30.2 0.0
19 12:15 S 6 10.00 Partly Cloudy SCT048 SCT110 75 46.4 36% 77 30.2 0.0
19 11:55 S 6 10.00 Mostly Cloudy BKN048 BKN100 73.4 45.7 37% 30.2 0.0
19 11:35 Calm 10.00 Partly Cloudy SCT110 71.8 42.4 35% 30.2 0.0
19 11:15 SW 3 10.00 Fair CLR 73.6 44.8 36% 30.2 0.0
19 10:55 NW 3 10.00 Fair CLR 72.1 43 35% 30.2 0.0
19 10:35 Calm 10.00 Fair CLR 72 46.4 40% 30.21 0.0
19 10:15 W 3 10.00 Fair CLR 72.1 48.4 43% 30.21 0.0
19 09:55 W 3 10.00 Fair CLR 70.9 48.6 45% 30.21 0.0
19 09:35 W 3 10.00 Fair CLR 69.8 48.6 47% 30.22 0.0
19 09:15 W 3 10.00 Fair CLR 69.1 49.5 50% 30.22 0.0
19 08:55 Calm 10.00 Fair CLR 67.6 48.4 50% 30.21 0.0
19 08:35 Calm 10.00 Fair CLR 65.5 47.7 53% 30.21 0.0
19 08:15 Calm 10.00 Fair CLR 64.4 49.1 58% 30.21 0.0
19 07:55 Calm 10.00 Fair CLR 63.5 50.5 63.5 56.7 63% 30.2 0.0
19 07:35 Calm 10.00 Fair CLR 61.7 52.7 72% 30.2 0.0
19 07:15 Calm 10.00 Fair CLR 59.7 53.8 81% 30.19 0.0
19 06:55 NW 5 10.00 Fair CLR 57.2 51.4 81% 30.19 0.0
19 06:35 Calm 10.00 Fair CLR 57.2 51.3 81% 30.18 0.0
19 06:15 Calm 10.00 Fair CLR 57.2 51.1 80% 30.18 0.0
19 05:55 Calm 10.00 Fair CLR 57.4 51.1 80% 30.17 0.0
19 05:35 Calm 10.00 Fair CLR 57.2 51.1 80% 30.17 0.0
19 05:15 Calm 10.00 Fair CLR 58.8 48.2 68% 30.17 0.0
19 04:55 Calm 10.00 Fair CLR 57.6 49.6 75% 30.17 0.0
19 04:35 Calm 10.00 Fair CLR 59.2 47.7 66% 30.17 0.0
19 04:15 Calm 10.00 Fair CLR 59.7 46.9 63% 30.17 0.0
19 03:55 Calm 10.00 Fair CLR 58.8 46.4 64% 30.16 0.0
19 03:35 Calm 10.00 Fair CLR 59 46 62% 30.16 0.0
19 03:15 E 3 10.00 Partly Cloudy SCT120 62.4 42.6 49% 30.17 0.0
19 02:55 E 3 10.00 Partly Cloudy SCT120 63 41.5 46% 30.17 0.0
19 02:35 Calm 10.00 Mostly Cloudy BKN120 63.3 40.3 43% 30.17 0.0
19 02:15 Calm 10.00 Mostly Cloudy BKN110 63 40.6 44% 30.18 0.0
19 01:55 E 3 10.00 Mostly Cloudy BKN110 63.3 41.2 69.1 62.6 44% 30.18 0.0
19 01:35 SE 3 10.00 Mostly Cloudy BKN110 62.8 43.5 50% 30.18 0.0
19 01:15 Calm 10.00 Mostly Cloudy BKN110 63.1 45.3 52% 30.18 0.0
19 00:55 SE 3 10.00 Overcast OVC110 63.3 46 54% 30.17 0.0
19 00:35 E 3 10.00 Overcast OVC110 63.5 45.9 53% 30.17 0.0
19 00:15 SE 3 10.00 Overcast OVC110 63.5 47.3 56% 30.16 0.0
18 23:55 E 3 10.00 Mostly Cloudy BKN110 63.9 47.1 55% 30.16 0.0
18 23:35 E 5 10.00 Overcast OVC110 64.6 48.6 56% 30.16 0.0
18 23:15 E 5 10.00 Overcast OVC110 64.8 49.3 57% 30.16 0.0
18 22:55 Calm 10.00 Overcast OVC110 65.5 49.1 56% 30.16 0.0
18 22:35 Calm 10.00 Overcast SCT055 BKN100 OVC110 66 48.4 53% 30.15 0.0
18 22:15 Calm 10.00 Overcast SCT055 BKN065 OVC110 66 48.4 53% 30.15 0.0
18 21:55 E 5 10.00 Overcast SCT060 BKN090 OVC110 66.7 48.4 52% 30.15 0.0
18 21:35 E 3 10.00 Overcast SCT060 BKN100 OVC110 66.6 48.7 53% 30.14 0.0
18 21:15 E 5 10.00 Overcast SCT048 SCT060 OVC110 66.7 47.8 51% 30.14 0.0
18 20:55 NE 5 10.00 Overcast SCT050 SCT080 OVC100 67.3 48.2 51% 30.14 0.0
18 20:35 E 5 10.00 Overcast SCT050 SCT060 OVC110 68 48.2 49% 30.13 0.0
18 20:15 E 6 10.00 Mostly Cloudy SCT065 SCT070 BKN110 68.9 48.7 49% 30.13 0.0
18 19:55 NE 8 10.00 Mostly Cloudy SCT050 SCT065 BKN110 68.9 47.5 76.1 68.9 47% 30.13 0.0
18 19:35 E 3 10.00 Mostly Cloudy SCT065 BKN100 BKN120 69.3 46.8 45% 30.13 0.0
18 19:15 E 5 10.00 Mostly Cloudy SCT055 BKN065 BKN110 70.3 46.4 43% 30.13 0.0
18 18:55 E 7 10.00 Mostly Cloudy SCT055 BKN065 BKN110 70.3 46.9 43% 30.13 0.0
18 18:35 NE 10 10.00 Overcast SCT060 OVC065 71.1 47.1 43% 30.12 0.0
18 18:15 NE 7 10.00 Mostly Cloudy BKN060 BKN095 71.8 46.4 40% 30.11 0.0
18 17:55 NE 7 10.00 Mostly Cloudy BKN060 BKN095 71.6 45.5 39% 30.11 0.0
18 17:35 NE 8 10.00 Overcast OVC060 71.6 47.1 42% 30.11 0.0
18 17:15 NE 9 10.00 Overcast BKN050 OVC070 72 47.7 42% 30.11 0.0
18 16:55 NE 8 10.00 Overcast SCT049 OVC070 76.1 39.7 27% 77 30.11 0.0
18 16:35 NE 7 10.00 Overcast BKN049 OVC060 73.6 40.1 30% 30.11 0.0
18 16:15 NE 6 10.00 Mostly Cloudy SCT049 BKN060 BKN070 72.9 40.5 31% 30.11 0.0
18 15:55 NE 8 10.00 Mostly Cloudy SCT047 BKN065 BKN110 74.3 42.8 32% 30.12 0.0
18 15:35 NE 12 G 17 10.00 Overcast SCT047 OVC065 73 40.8 31% 30.12 0.0
18 15:15 NE 5 10.00 Overcast SCT065 OVC070 72.5 43.3 35% 30.12 0.0
18 14:55 NE 8 10.00 Overcast SCT047 SCT050 OVC065 72.5 42.4 34% 30.13 0.0
18 14:35 NE 8 10.00 Overcast SCT047 OVC065 73 42.6 34% 30.12 0.0
18 14:15 NE 6 10.00 Overcast BKN047 OVC055 71.6 40.3 32% 30.13 0.0
18 13:55 N 6 10.00 Mostly Cloudy BKN055 BKN100 73.6 40.6 73.6 63.7 31% 30.12 0.0
18 13:35 N 3 10.00 Overcast SCT044 OVC055 72 40.5 32% 30.13 0.0
18 13:15 N 5 10.00 Overcast SCT042 SCT050 OVC055 71.1 42.3 35% 30.13 0.0
18 12:55 N 7 10.00 Overcast SCT042 SCT050 OVC055 72.5 41.5 33% 30.13 0.0
18 12:35 N 7 10.00 Mostly Cloudy SCT042 BKN050 72.5 41.5 33% 30.13 0.0
18 12:15 NE 6 10.00 Partly Cloudy SCT039 SCT048 72 44.1 37% 30.13 0.0
18 11:55 NW 7 10.00 Partly Cloudy SCT036 SCT042 SCT048 71.1 43.2 37% 30.13 0.0
18 11:35 N 8 10.00 Mostly Cloudy BKN036 BKN044 70.2 42.1 36% 30.12 0.0
18 11:15 N 6 10.00 Mostly Cloudy BKN033 BKN040 70.9 43.3 37% 30.12 0.0
18 10:55 N 8 10.00 Partly Cloudy SCT033 70.9 45.1 40% 30.11 0.0
18 10:35 N 8 10.00 Fair CLR 69.6 46 43% 30.11 0.0
18 10:15 N 9 10.00 Partly Cloudy SCT024 67.5 47.5 49% 30.11 0.0
18 09:55 N 9 10.00 Partly Cloudy SCT024 67.8 48.7 51% 30.11 0.0
18 09:35 N 8 10.00 Fair CLR 68 48.6 50% 30.1 0.0
18 09:15 NE 10 10.00 Partly Cloudy SCT022 67.1 48.6 52% 30.1 0.0
18 08:55 N 8 10.00 Fair CLR 66.4 50.9 58% 30.09 0.0
18 08:35 N 8 10.00 Fair CLR 65.5 51.1 60% 30.09 0.0
18 08:15 N 7 10.00 Fair CLR 64.6 52.2 64% 30.08 0.0
18 07:55 N 10 10.00 Fair CLR 63.5 52.3 67.8 60.8 67% 30.08 0.0
18 07:35 N 7 10.00 Fair CLR 62.8 52.7 70% 30.08 0.0
18 07:15 N 7 10.00 Fair CLR 61.9 53.1 73% 30.07 0.0
18 06:55 N 7 10.00 Fair CLR 61.2 53.1 75% 30.06 0.0
18 06:35 N 8 10.00 Fair CLR 60.8 52.7 75% 30.06 0.0
18 06:15 N 9 10.00 Fair CLR 60.8 52 73% 30.05 0.0
18 05:55 N 8 10.00 Fair CLR 61.2 51.1 70% 30.04 0.0
18 05:35 N 8 10.00 Partly Cloudy SCT049 61.9 50.4 66% 30.04 0.0
18 04:57 N 7 10.00 Overcast BKN049 OVC055 63.5 49.3 60% 30.04 0.0
17 23:15 NE 5 10.00 Overcast SCT039 BKN047 OVC100 69.6 58.8 69% 29.97 0.0
17 22:55 NE 3 10.00 Overcast SCT034 BKN075 OVC100 69.3 58.3 68% 29.96 0.0
17 22:35 NE 6 10.00 Overcast SCT044 SCT060 OVC100 69.1 58.1 68% 29.96 0.0
17 22:15 NE 3 10.00 Overcast SCT042 BKN095 OVC110 70.5 56.3 61% 29.96 0.0
17 21:55 NE 7 10.00 Overcast BKN040 BKN047 OVC065 73 57 57% 29.95 0.0
17 21:35 N 3 10.00 Overcast BKN037 BKN044 OVC055 73 57.2 58% 29.95 0.0
Date Time (edt) Wind (mph) Vis. (mi.) Weather Sky Cond. Air Dwpt Max. Min. Relative Humidity Wind Chill (°F) Heat Index (°F) altimeter (in) sea level (mb) 1 hr 3 hr 6 hr
6 hour
Temperature (ºF) Pressure Precipitation (in)